Find Rassvet-3 No. 16

NORAD ID: 68375 Int'l Des: 2026-061 Owner: B1440 Country: RU Constellation: Rassvet operational
LEOCIRCULARPOLAR

Current View

Loading 3D Globe...

About Rassvet-3 No. 16

Rassvet-3 No. 16 (NORAD 68375) is a Rassvet constellation satellite launched Mar 23, 2026 by B1440 of RU. It operates in LEO, CIRCULAR, POLAR orbit with a mass of 370.00 kg.

About Rassvet-3 No. 16

Description loading...

Upcoming Passes

Passes for default location (London). Set your location on the main map for personalized predictions.

Altitude History

Loading altitude history...

Two-Line Element Set

1 68375U 26061R 26175.09028542 -.00742887 00000-0 -16894-1 0 9992
2 68375 82.2931 5.3860 0004446 246.2164 113.8618 15.45355288 14594
Epoch: Jun 24, 2026 • Age: 30 hours

Current Status

Altitude 440.1 km
Velocity 7.65 km/s
Sub-Earth Point 7.92°N, 24.51°W
Launch Date Mar 23, 2026
Age 0.2 years
Type other

Technical Details

Classification Payload
Mass 370.00 kg
Dry Mass 370.00 kg
Total Mass 370.00 kg
Length 4.00 m
Diameter 1.00 m
Span 10.00 m
Shape Box+1 pan
Manufacturer B1440
Bus Type Rassvet-2
Phase Status In Orbit
Owner/State B1440/RU

Most Searched